| time (UTC) | temp F | wind direction | speed knots | gust knots | rain 1hr in | rain 24hr in | rain mn in | humidity % | barometer mb |
| 20260905223052 | 58 | 360 | 1.7 | 7.0 | 0.00 | 0.04 | 0.00 | 67 | 1024.8 |
| 20260905221554 | 59 | 360 | 1.7 | 7.0 | 0.00 | 0.04 | 0.00 | 67 | 1024.8 |
| 20260905220048 | 59 | 360 | 0.9 | 5.2 | 0.00 | 0.04 | 0.00 | 68 | 1024.8 |
| 20260905214546 | 60 | 360 | 0.9 | 7.0 | 0.00 | 0.04 | 0.04 | 67 | 1024.6 |
| 20260905213053 | 61 | 360 | 1.7 | 5.2 | 0.00 | 0.04 | 0.04 | 66 | 1024.4 |
| 20260905211548 | 61 | 360 | 2.6 | 7.8 | 0.00 | 0.04 | 0.04 | 68 | 1024.2 |
| 20260905210045 | 61 | 360 | 2.6 | 7.8 | 0.00 | 0.04 | 0.04 | 69 | 1024.0 |
| 20260905204544 | 61 | 360 | 2.6 | 7.0 | 0.00 | 0.04 | 0.04 | 70 | 1023.9 |
| 20260905203053 | 61 | 360 | 2.6 | 7.8 | 0.00 | 0.04 | 0.04 | 70 | 1023.7 |
| 20260905201555 | 61 | 360 | 3.5 | 7.0 | 0.00 | 0.04 | 0.04 | 70 | 1023.5 |
| 20260905200041 | 62 | 360 | 3.5 | 7.8 | 0.00 | 0.04 | 0.04 | 69 | 1023.3 |
| 20260905194539 | 63 | 360 | 4.3 | 9.6 | 0.00 | 0.04 | 0.04 | 68 | 1023.2 |
| 20260905193039 | 63 | 360 | 7.0 | 8.7 | 0.00 | 0.04 | 0.04 | 67 | 1022.9 |
| 20260905191537 | 64 | 360 | 6.1 | 9.6 | 0.00 | 0.04 | 0.04 | 66 | 1022.7 |
| 20260905190037 | 64 | 360 | 6.1 | 9.6 | 0.00 | 0.04 | 0.04 | 66 | 1022.5 |
| 20260905184537 | 65 | 360 | 7.0 | 10.4 | 0.00 | 0.04 | 0.04 | 64 | 1022.1 |
| 20260905183041 | 65 | 360 | 6.1 | 10.4 | 0.00 | 0.04 | 0.04 | 64 | 1022.1 |
| 20260905181532 | 66 | 360 | 6.1 | 11.3 | 0.00 | 0.04 | 0.04 | 63 | 1021.9 |
| 20260905180032 | 66 | 360 | 8.7 | 12.2 | 0.00 | 0.04 | 0.04 | 61 | 1021.7 |
| 20260905174529 | 66 | 360 | 7.8 | 13.0 | 0.00 | 0.04 | 0.04 | 61 | 1021.5 |
| 20260905173029 | 67 | 360 | 7.0 | 14.8 | 0.00 | 0.04 | 0.04 | 59 | 1021.3 |
| 20260905171528 | 68 | 360 | 7.8 | 15.6 | 0.00 | 0.04 | 0.04 | 57 | 1021.3 |
| 20260905170028 | 69 | 360 | 11.3 | 19.1 | 0.00 | 0.04 | 0.04 | 56 | 1021.2 |
| 20260905164527 | 69 | 360 | 9.6 | 17.4 | 0.00 | 0.04 | 0.04 | 55 | 1021.1 |
| 20260905163027 | 70 | 360 | 13.0 | 22.6 | 0.00 | 0.04 | 0.04 | 54 | 1021.1 |
| 20260905161526 | 70 | 360 | 11.3 | 18.2 | 0.00 | 0.04 | 0.04 | 55 | 1021.0 |
| 20260905160026 | 70 | 360 | 15.6 | 20.9 | 0.00 | 0.04 | 0.04 | 53 | 1020.7 |
| 20260905154525 | 69 | 360 | 12.2 | 19.1 | 0.00 | 0.04 | 0.04 | 55 | 1020.7 |
| 20260905153024 | 70 | 360 | 13.9 | 23.5 | 0.00 | 0.04 | 0.04 | 54 | 1020.9 |
| 20260905151531 | 70 | 360 | 13.9 | 20.9 | 0.00 | 0.04 | 0.04 | 54 | 1020.7 |
| 20260905150025 | 70 | 360 | 13.0 | 19.1 | 0.00 | 0.04 | 0.04 | 54 | 1020.6 |
| 20260905144532 | 71 | 360 | 12.2 | 18.2 | 0.00 | 0.04 | 0.04 | 54 | 1020.4 |
| 20260905143025 | 71 | 360 | 11.3 | 17.4 | 0.00 | 0.04 | 0.04 | 54 | 1020.6 |
| 20260905141524 | 69 | 360 | 13.0 | 20.0 | 0.00 | 0.04 | 0.04 | 57 | 1020.8 |
| 20260905140022 | 70 | 360 | 13.0 | 21.7 | 0.00 | 0.04 | 0.04 | 56 | 1020.7 |
| 20260905134622 | 71 | 360 | 13.0 | 19.1 | 0.00 | 0.04 | 0.04 | 55 | 1020.7 |
| 20260905133017 | 70 | 360 | 16.5 | 21.7 | 0.00 | 0.04 | 0.04 | 58 | 1020.9 |
| 20260905131517 | 70 | 360 | 13.9 | 20.0 | 0.00 | 0.04 | 0.04 | 59 | 1020.8 |
| 20260905130018 | 69 | 360 | 14.8 | 21.7 | 0.00 | 0.04 | 0.04 | 60 | 1021.0 |
| 20260905124517 | 69 | 360 | 16.5 | 22.6 | 0.00 | 0.04 | 0.04 | 61 | 1020.9 |
| 20260905123014 | 69 | 360 | 13.9 | 24.3 | 0.00 | 0.04 | 0.04 | 62 | 1021.0 |
| 20260905121513 | 69 | 360 | 12.2 | 22.6 | 0.00 | 0.04 | 0.04 | 64 | 1021.0 |
| 20260905120012 | 68 | 360 | 12.2 | 20.9 | 0.00 | 0.04 | 0.04 | 65 | 1021.0 |
| 20260905114512 | 68 | 360 | 13.0 | 22.6 | 0.00 | 0.04 | 0.04 | 64 | 1021.0 |
| 20260905113009 | 67 | 360 | 11.3 | 17.4 | 0.00 | 0.04 | 0.04 | 67 | 1021.0 |
| 20260905111507 | 67 | 360 | 11.3 | 15.6 | 0.00 | 0.04 | 0.04 | 69 | 1021.0 |
| 20260905110006 | 66 | 360 | 8.7 | 17.4 | 0.00 | 0.04 | 0.04 | 70 | 1021.0 |
| 20260905104505 | 66 | 360 | 13.0 | 16.5 | 0.00 | 0.04 | 0.04 | 68 | 1021.1 |
| 20260905103005 | 66 | 360 | 12.2 | 19.1 | 0.00 | 0.04 | 0.04 | 69 | 1021.0 |
| 20260905101505 | 66 | 360 | 13.0 | 20.0 | 0.00 | 0.04 | 0.04 | 69 | 1021.0 |
| 20260905100005 | 65 | 360 | 11.3 | 20.0 | 0.00 | 0.04 | 0.04 | 71 | 1021.0 |
| 20260905094600 | 64 | 360 | 13.0 | 18.2 | 0.00 | 0.04 | 0.04 | 72 | 1021.1 |
| 20260905093059 | 64 | 360 | 10.4 | 16.5 | 0.00 | 0.04 | 0.04 | 74 | 1021.1 |
| 20260905091558 | 63 | 360 | 11.3 | 16.5 | 0.00 | 0.04 | 0.04 | 75 | 1021.0 |
| 20260905090123 | 62 | 360 | 8.7 | 13.9 | 0.00 | 0.04 | 0.04 | 77 | 1020.9 |
| 20260905084552 | 60 | 360 | 6.1 | 9.6 | 0.00 | 0.04 | 0.04 | 80 | 1020.8 |
| 20260905083051 | 60 | 360 | 6.1 | 11.3 | 0.00 | 0.04 | 0.04 | 81 | 1020.5 |
| 20260905081552 | 59 | 360 | 4.3 | 9.6 | 0.01 | 0.04 | 0.04 | 84 | 1020.4 |
| 20260905080051 | 58 | 360 | 4.3 | 8.7 | 0.01 | 0.04 | 0.04 | 87 | 1020.4 |
| 20260905074551 | 57 | 360 | 4.3 | 8.7 | 0.01 | 0.04 | 0.04 | 87 | 1020.3 |
| 20260905073050 | 56 | 360 | 6.1 | 8.7 | 0.01 | 0.04 | 0.04 | 87 | 1020.1 |
| 20260905071549 | 56 | 360 | 4.3 | 9.6 | 0.01 | 0.04 | 0.04 | 86 | 1019.5 |
| 20260905070049 | 56 | 360 | 3.5 | 5.2 | 0.00 | 0.03 | 0.03 | 86 | 1019.2 |
| 20260905064547 | 56 | 360 | 2.6 | 7.0 | 0.02 | 0.03 | 0.03 | 85 | 1019.6 |
| 20260905063046 | 56 | 360 | 2.6 | 7.0 | 0.02 | 0.03 | 0.03 | 84 | 1019.5 |
| 20260905061545 | 55 | 360 | 2.6 | 7.0 | 0.02 | 0.03 | 0.03 | 83 | 1019.5 |
| 20260905060048 | 56 | 360 | 1.7 | 9.6 | 0.02 | 0.03 | 0.03 | 82 | 1019.7 |
| 20260905054543 | 57 | 360 | 3.5 | 11.3 | 0.01 | 0.02 | 0.02 | 82 | 1020.5 |
| 20260905053042 | 57 | 360 | 2.6 | 5.2 | 0.00 | 0.01 | 0.01 | 82 | 1019.9 |
| 20260905051538 | 57 | 360 | 1.7 | 4.3 | 0.00 | 0.01 | 0.01 | 82 | 1019.3 |
| 20260905050035 | 57 | 360 | 0.0 | 2.6 | 0.00 | 0.01 | 0.01 | 81 | 1019.1 |
| 20260905044535 | 57 | 360 | 0.9 | 3.5 | 0.01 | 0.01 | 0.01 | 80 | 1019.1 |
| 20260905043032 | 58 | 360 | 0.9 | 7.0 | 0.01 | 0.01 | 0.01 | 79 | 1018.6 |
| 20260905041546 | 59 | 360 | 1.7 | 7.0 | 0.01 | 0.01 | 0.01 | 78 | 1018.5 |
| 20260905040032 | 59 | 360 | 1.7 | 9.6 | 0.01 | 0.01 | 0.01 | 76 | 1018.5 |
| 20260905034529 | 61 | 360 | 2.6 | 7.8 | 0.01 | 0.01 | 0.01 | 74 | 1018.4 |
| 20260905033027 | 62 | 360 | 1.7 | 8.7 | 0.00 | 0.00 | 0.00 | 69 | 1017.9 |
| 20260905031527 | 63 | 360 | 4.3 | 8.7 | 0.00 | 0.00 | 0.00 | 68 | 1017.2 |
| 20260905030028 | 63 | 360 | 4.3 | 8.7 | 0.00 | 0.00 | 0.00 | 69 | 1017.2 |
| 20260905024531 | 63 | 360 | 2.6 | 8.7 | 0.00 | 0.00 | 0.00 | 70 | 1017.3 |
| 20260905023026 | 64 | 360 | 4.3 | 13.9 | 0.00 | 0.00 | 0.00 | 70 | 1016.9 |
| 20260905021530 | 64 | 360 | 6.1 | 12.2 | 0.00 | 0.00 | 0.00 | 72 | 1016.4 |
| 20260905020022 | 64 | 360 | 5.2 | 13.0 | 0.00 | 0.00 | 0.00 | 74 | 1016.1 |
| 20260905014519 | 65 | 360 | 7.0 | 17.4 | 0.00 | 0.00 | 0.00 | 74 | 1015.7 |
| 20260905013016 | 60 | 360 | 0.0 | 0.0 | 0.00 | 0.00 | 0.00 | 84 | 1014.8 |
| 20260905011513 | 60 | 360 | 0.0 | 0.0 | 0.00 | 0.00 | 0.00 | 84 | 1014.6 |
| 20260905010014 | 59 | 360 | 0.0 | 0.0 | 0.00 | 0.00 | 0.00 | 84 | 1014.5 |
| 20260905004511 | 59 | 360 | 0.0 | 0.0 | 0.00 | 0.00 | 0.00 | 83 | 1014.4 |
| 20260905003011 | 59 | 360 | 0.0 | 0.0 | 0.00 | 0.00 | 0.00 | 83 | 1014.1 |
| 20260905001512 | 59 | 360 | 0.0 | 0.0 | 0.00 | 0.00 | 0.00 | 82 | 1013.9 |
| 20260905000008 | 59 | 360 | 0.0 | 0.0 | 0.00 | 0.00 | 0.00 | 82 | 1014.0 |
| 20260904234505 | 58 | 360 | 0.0 | 0.9 | 0.00 | 0.00 | 0.00 | 80 | 1013.9 |
| 20260904233005 | 57 | 360 | 0.0 | 0.0 | 0.00 | 0.00 | 0.00 | 79 | 1013.9 |
| 20260904231504 | 57 | 360 | 0.0 | 0.0 | 0.00 | 0.00 | 0.00 | 78 | 1013.9 |
| 20260904230002 | 57 | 360 | 0.0 | 0.0 | 0.00 | 0.00 | 0.00 | 79 | 1013.9 |
| 20260904224501 | 57 | 360 | 0.0 | 0.0 | 0.00 | 0.00 | 0.00 | 79 | 1013.7 |